This demonstration page uses our WeatherBlox Daily Observations layout. Learn more.

Left ArrowRight Arrow

Hourly Observations for December 12, 2018

Temp ( °F °C ) Dew Point ( °F °C ) Humidity (%) Winds ( mph kmh ) Pressure ( in mb ) Visibility ( mi km ) Precip ( " mm )
12:53 am 00:53 Clear 29 -1.7 25 -3.9 85 85 W 7 11 29.93 1014 10 16 0.00 0.00
1:53 am 01:53 Clear 27 -2.8 23 -5 85 85 WSW 10 17 29.93 1014 10 16 0.00 0.00
2:53 am 02:53 Clear 28 -2.2 24 -4.4 85 85 WSW 12 19 29.93 1014 10 16 0.00 0.00
3:53 am 03:53 Clear 29 -1.7 24 -4.4 82 82 W 13 20 29.93 1013 10 16 0.00 0.00
4:53 am 04:53 Clear 28 -2.2 23 -5 81 81 W 8 13 29.91 1013 10 16 0.00 0.00
5:53 am 05:53 Clear 27 -2.8 22 -5.6 81 81 SW 6 9 29.91 1013 10 16 0.00 0.00
6:53 am 06:53 Clear 25 -3.9 20 -6.7 81 81 SSW 5 7 29.90 1013 10 16 0.00 0.00
7:53 am 07:53 Sunny 25 -3.9 20 -6.7 81 81 SSW 6 9 29.89 1012 10 16 0.00 0.00
8:53 am 08:53 Sunny 27 -2.8 21 -6.1 78 78 SSW 7 11 29.87 1012 10 16 0.00 0.00
9:53 am 09:53 Sunny 31 -0.6 24 -4.4 76 76 SW 7 11 29.86 1011 10 16 0.00 0.00
10:53 am 10:53 Sunny 37 2.8 27 -2.8 67 67 SW 8 13 29.83 1010 10 16 0.00 0.00
11:53 am 11:53 Sunny 41 5 27 -2.8 57 57 SSW 14 22 29.78 1009 10 16 0.00 0.00
12:53 pm 12:53 Sunny 45 7.2 27 -2.8 49 49 SW 14 22 29.75 1007 10 16 0.00 0.00
1:53 pm 13:53 Sunny 45 7.2 27 -2.8 49 49 SSW 12 19 29.72 1007 10 16 0.00 0.00
2:53 pm 14:53 Sunny 44 6.7 29 -1.7 55 55 SSW 14 22 29.72 1006 10 16 0.00 0.00
3:53 pm 15:53 Sunny 45 7.2 30 -1.1 56 56 S 9 15 29.71 1006 10 16 0.00 0.00
4:53 pm 16:53 Sunny 44 6.7 31 -0.6 60 60 S 5 7 29.72 1007 10 16 0.00 0.00
5:53 pm 17:53 Clear 41 5 30 -1.1 65 65 SSW 5 7 29.74 1007 10 16 0.00 0.00
6:53 pm 18:53 Clear 39 3.9 30 -1.1 70 70 S 6 9 29.75 1007 10 16 0.00 0.00
7:53 pm 19:53 Clear 37 2.8 29 -1.7 73 73 SW 5 7 29.77 1008 10 16 0.00 0.00
8:53 pm 20:53 Clear 38 3.3 29 -1.7 70 70 SSW 8 13 29.77 1008 10 16 0.00 0.00
9:53 pm 21:53 Clear 36 2.2 28 -2.2 73 73 SW 5 7 29.78 1008 10 16 0.00 0.00
10:53 pm 22:53 Clear 32 0 26 -3.3 79 79 WSW 7 11 29.79 1009 10 16 0.00 0.00
11:53 pm 23:53 Clear 34 1.1 27 -2.8 76 76 NW 12 19 29.79 1009 10 16 0.00 0.00

Powered by AerisWeather